Voltar ao catálogo

FAST 2

USA 228

AtivoMilitarLEO
NORAD 37380·PAYLOAD·🇺🇸 United States

Lançado Nov 20, 2010 de Kodiak Launch Complex

Loading…

Próximas Passagens (próximas 24 horas)

TLE

AtualizadoSource: Space-Track

Época: Sep 14, 2026, 13:54 UTC

1 37380U 10062M   26257.57964133  .00000483  00000-0  63904-4 0  9991
2 37380  71.9715 305.8456 0017222 300.2895  59.6566 14.84761415379046

Acompanhe FAST 2 em tempo real com AllMySat

Download on the App Store